Back to Top

Language: 

My Weather Underground Personal Weather Station Historical Data with Graphs...

Delerius Weather Station Historical Data
Daily Summary for February 20, 2017 Units:  Metric    English   Both
« Previous Day
Next Day »
Daily Weekly Monthly Yearly Custom
  High: Low: Average:
Temperature: 14.2 °C 8.7 °C 11.6 °C
Dew Point: 11.6 °C 6.3 °C 9.8 °C
Humidity: 94 % 82 % 89 %
Wind Speed: 41.8 km/h 3.2 km/h 19 km/h
Wind Gust: 53.1 km/h - -
Wind:- - West
Pressure: 1016.5 hPa 1012.1 hPa -
Precipitation: 0 mm    
Historical Graphs
 
 
Tabular Data for February 20, 2017
Time Temperature Dew Point Pressure Wind Wind Speed Wind Gust Humidity Rainfall Rate (Hourly) solar Conditions
00:00 11.1 °C 9.7 °C 1016.5 hPa West 8 km/h 8 km/h 91 % 0 mm 0 W/m2
00:05 11.1 °C 9.7 °C 1016.5 hPa WNW 6.4 km/h 14.5 km/h 91 % 0 mm 0 W/m2
00:15 11.3 °C 9.9 °C 1016.1 hPa West 9.7 km/h 14.5 km/h 91 % 0 mm 0 W/m2
00:25 11.4 °C 9.9 °C 1016.1 hPa WSW 8 km/h 9.7 km/h 91 % 0 mm 0 W/m2
00:30 11.4 °C 10 °C 1016.1 hPa West 6.4 km/h 6.4 km/h 91 % 0 mm 0 W/m2
00:35 11.5 °C 10.1 °C 1016.1 hPa WSW 6.4 km/h 11.3 km/h 91 % 0 mm 0 W/m2
00:40 11.6 °C 10.2 °C 1016.1 hPa WSW 8 km/h 11.3 km/h 91 % 0 mm 0 W/m2
00:45 11.7 °C 10.3 °C 1016.1 hPa North 9.7 km/h 19.3 km/h 91 % 0 mm 0 W/m2
00:50 11.8 °C 10.4 °C 1016.1 hPa WNW 14.5 km/h 14.5 km/h 91 % 0 mm 0 W/m2
00:55 11.9 °C 10.3 °C 1016.1 hPa West 19.3 km/h 30.6 km/h 90 % 0 mm 0 W/m2
01:00 11.9 °C 10.3 °C 1016.1 hPa West 19.3 km/h 19.3 km/h 90 % 0 mm 0 W/m2
01:10 11.8 °C 10.2 °C 1016.1 hPa WNW 22.5 km/h 22.5 km/h 90 % 0 mm 0 W/m2
01:15 11.8 °C 10.2 °C 1016.1 hPa West 22.5 km/h 22.5 km/h 90 % 0 mm 0 W/m2
01:20 11.8 °C 10.2 °C 1016.1 hPa West 20.9 km/h 20.9 km/h 90 % 0 mm 0 W/m2
01:30 11.8 °C 10.4 °C 1016.1 hPa West 24.1 km/h 32.2 km/h 91 % 0 mm 0 W/m2
01:35 11.8 °C 10.4 °C 1015.8 hPa West 25.7 km/h 32.2 km/h 91 % 0 mm 0 W/m2
01:40 11.8 °C 10.3 °C 1016.1 hPa West 24.1 km/h 24.1 km/h 91 % 0 mm 0 W/m2
01:45 11.7 °C 10.3 °C 1016.1 hPa West 19.3 km/h 24.1 km/h 91 % 0 mm 0 W/m2
01:55 11.7 °C 10.2 °C 1016.1 hPa West 16.1 km/h 17.7 km/h 91 % 0 mm 0 W/m2
02:00 11.7 °C 10.2 °C 1016.1 hPa West 17.7 km/h 17.7 km/h 91 % 0 mm 0 W/m2
02:05 11.7 °C 10.2 °C 1016.1 hPa WSW 17.7 km/h 17.7 km/h 91 % 0 mm 0 W/m2
02:10 11.7 °C 10.2 °C 1016.1 hPa WSW 14.5 km/h 14.5 km/h 91 % 0 mm 0 W/m2
02:15 11.6 °C 10.2 °C 1016.1 hPa WSW 12.9 km/h 17.7 km/h 91 % 0 mm 0 W/m2
02:20 11.6 °C 10.1 °C 1016.1 hPa WNW 12.9 km/h 12.9 km/h 91 % 0 mm 0 W/m2
02:25 11.5 °C 10.1 °C 1016.1 hPa West 9.7 km/h 17.7 km/h 91 % 0 mm 0 W/m2
02:35 11.4 °C 9.9 °C 1016.1 hPa WNW 8 km/h 17.7 km/h 91 % 0 mm 0 W/m2
02:45 11.3 °C 10.1 °C 1015.8 hPa WSW 4.8 km/h 17.7 km/h 92 % 0 mm 0 W/m2
02:50 11.3 °C 10.1 °C 1015.8 hPa WSW 3.2 km/h 3.2 km/h 92 % 0 mm 0 W/m2
02:55 11.3 °C 10.1 °C 1015.8 hPa WNW 3.2 km/h 17.7 km/h 92 % 0 mm 0 W/m2
03:00 11.3 °C 10.1 °C 1015.8 hPa West 3.2 km/h 17.7 km/h 92 % 0 mm 0 W/m2
03:05 11.3 °C 10.1 °C 1015.5 hPa West 3.2 km/h 17.7 km/h 92 % 0 mm 0 W/m2
03:10 11.4 °C 10.1 °C 1015.5 hPa WNW 4.8 km/h 4.8 km/h 92 % 0 mm 0 W/m2
03:20 11.4 °C 10.1 °C 1015.5 hPa West 4.8 km/h 17.7 km/h 92 % 0 mm 0 W/m2
03:25 11.4 °C 10.1 °C 1015.5 hPa West 8 km/h 30.6 km/h 92 % 0 mm 0 W/m2
03:30 11.4 °C 10.2 °C 1015.5 hPa NW 14.5 km/h 17.7 km/h 92 % 0 mm 0 W/m2
03:35 11.4 °C 10.2 °C 1015.5 hPa West 17.7 km/h 17.7 km/h 92 % 0 mm 0 W/m2
03:40 11.4 °C 10.2 °C 1015.5 hPa West 17.7 km/h 17.7 km/h 92 % 0 mm 0 W/m2
03:45 11.4 °C 10.1 °C 1015.5 hPa West 14.5 km/h 17.7 km/h 92 % 0 mm 0 W/m2
03:50 11.3 °C 10.2 °C 1015.5 hPa West 16.1 km/h 30.6 km/h 93 % 0 mm 0 W/m2
04:00 11.2 °C 10.3 °C 1015.1 hPa WSW 22.5 km/h 37 km/h 94 % 0 mm 0 W/m2
04:05 11.2 °C 10.2 °C 1014.8 hPa West 25.7 km/h 37 km/h 94 % 0 mm 0 W/m2
04:10 11.2 °C 10.2 °C 1014.8 hPa West 29 km/h 29 km/h 94 % 0 mm 0 W/m2
04:15 11.2 °C 10.2 °C 1015.1 hPa West 27.4 km/h 29 km/h 94 % 0 mm 0 W/m2
04:25 11.2 °C 10.3 °C 1015.1 hPa NW 27.4 km/h 38.6 km/h 94 % 0 mm 0 W/m2
04:30 11.2 °C 10.2 °C 1014.8 hPa West 25.7 km/h 35.4 km/h 94 % 0 mm 0 W/m2
04:40 11.1 °C 10.2 °C 1014.8 hPa West 29 km/h 29 km/h 94 % 0 mm 0 W/m2
04:45 11.1 °C 10.1 °C 1014.8 hPa West 29 km/h 41.8 km/h 94 % 0 mm 0 W/m2
04:50 11.1 °C 10.2 °C 1014.4 hPa WNW 29 km/h 38.6 km/h 94 % 0 mm 0 W/m2
04:55 11.2 °C 10.1 °C 1014.4 hPa WNW 32.2 km/h 38.6 km/h 93 % 0 mm 0 W/m2
05:00 11.3 °C 10.2 °C 1014.8 hPa NW 33.8 km/h 33.8 km/h 93 % 0 mm 0 W/m2
05:05 11.3 °C 10.2 °C 1014.8 hPa WNW 32.2 km/h 33.8 km/h 93 % 0 mm 0 W/m2
05:10 11.4 °C 10.3 °C 1014.8 hPa West 30.6 km/h 30.6 km/h 93 % 0 mm 0 W/m2
05:15 11.4 °C 10.3 °C 1014.8 hPa West 29 km/h 30.6 km/h 93 % 0 mm 0 W/m2
05:25 11.3 °C 10.1 °C 1014.8 hPa NNW 25.7 km/h 25.7 km/h 92 % 0 mm 0 W/m2
05:30 11.3 °C 10.1 °C 1014.8 hPa West 25.7 km/h 29 km/h 92 % 0 mm 0 W/m2
05:35 11.4 °C 10.1 °C 1014.8 hPa WNW 24.1 km/h 29 km/h 92 % 0 mm 0 W/m2
05:40 11.4 °C 10 °C 1014.8 hPa West 22.5 km/h 22.5 km/h 91 % 0 mm 0 W/m2
05:45 11.4 °C 10 °C 1014.8 hPa West 20.9 km/h 29 km/h 91 % 0 mm 0 W/m2
05:55 11.5 °C 10.1 °C 1014.4 hPa WNW 20.9 km/h 24.1 km/h 91 % 0 mm 0 W/m2
06:05 11.4 °C 10 °C 1014.4 hPa WNW 24.1 km/h 29 km/h 91 % 0 mm 0 W/m2
06:10 11.4 °C 10 °C 1014.4 hPa WNW 24.1 km/h 24.1 km/h 91 % 0 mm 0 W/m2
06:15 11.4 °C 9.9 °C 1014.8 hPa WNW 24.1 km/h 24.1 km/h 91 % 0 mm 0 W/m2
06:20 11.3 °C 9.9 °C 1014.8 hPa NW 24.1 km/h 32.2 km/h 91 % 0 mm 0 W/m2
06:25 11.3 °C 9.9 °C 1014.4 hPa West 24.1 km/h 32.2 km/h 91 % 0 mm 0 W/m2
06:30 11.2 °C 9.9 °C 1014.8 hPa West 20.9 km/h 20.9 km/h 92 % 0 mm 0 W/m2
06:40 11.2 °C 9.9 °C 1014.8 hPa West 22.5 km/h 22.5 km/h 92 % 0 mm 0 W/m2
06:45 11.2 °C 9.9 °C 1014.8 hPa WNW 20.9 km/h 22.5 km/h 92 % 0 mm 0 W/m2
06:55 11.1 °C 9.8 °C 1014.8 hPa West 14.5 km/h 17.7 km/h 92 % 0 mm 0 W/m2
07:00 11.1 °C 10 °C 1014.8 hPa West 16.1 km/h 16.1 km/h 93 % 0 mm 0 W/m2
07:05 11.1 °C 9.9 °C 1014.8 hPa West 11.3 km/h 17.7 km/h 93 % 0 mm 0 W/m2
07:10 11.1 °C 10 °C 1014.8 hPa WSW 9.7 km/h 9.7 km/h 93 % 0 mm 0 W/m2
07:15 11.1 °C 10 °C 1014.4 hPa WSW 9.7 km/h 17.7 km/h 93 % 0 mm 0 W/m2
07:20 11.1 °C 10 °C 1014.4 hPa West 8 km/h 8 km/h 93 % 0 mm 0 W/m2
07:25 11.2 °C 9.9 °C 1014.4 hPa WSW 8 km/h 9.7 km/h 92 % 0 mm 0 W/m2
07:35 11.2 °C 9.9 °C 1014.1 hPa West 9.7 km/h 17.7 km/h 92 % 0 mm 5 W/m2
07:40 11.3 °C 10 °C 1014.1 hPa West 9.7 km/h 9.7 km/h 92 % 0 mm 9 W/m2
07:45 11.3 °C 10 °C 1014.4 hPa WSW 12.9 km/h 14.5 km/h 92 % 0 mm 9 W/m2
07:50 11.3 °C 10 °C 1014.4 hPa WSW 12.9 km/h 12.9 km/h 92 % 0 mm 9 W/m2
07:55 11.2 °C 9.9 °C 1014.4 hPa West 11.3 km/h 17.7 km/h 92 % 0 mm 12 W/m2
08:00 11.2 °C 9.9 °C 1014.4 hPa West 11.3 km/h 11.3 km/h 92 % 0 mm 14 W/m2
08:05 11.2 °C 9.9 °C 1014.4 hPa WNW 11.3 km/h 17.7 km/h 92 % 0 mm 18 W/m2
08:10 11.2 °C 9.9 °C 1014.4 hPa WNW 11.3 km/h 17.7 km/h 92 % 0 mm 19 W/m2
08:20 11.3 °C 10 °C 1014.4 hPa West 16.1 km/h 16.1 km/h 92 % 0 mm 19 W/m2
08:25 11.3 °C 9.9 °C 1014.1 hPa WSW 17.7 km/h 17.7 km/h 91 % 0 mm 21 W/m2
08:30 11.3 °C 9.9 °C 1014.1 hPa West 17.7 km/h 17.7 km/h 91 % 0 mm 14 W/m2
08:35 11.3 °C 9.9 °C 1014.4 hPa WSW 14.5 km/h 20.9 km/h 91 % 0 mm 12 W/m2
08:40 11.3 °C 9.9 °C 1014.1 hPa WSW 12.9 km/h 17.7 km/h 91 % 0 mm 16 W/m2
08:45 11.3 °C 9.9 °C 1014.1 hPa West 16.1 km/h 17.7 km/h 91 % 0 mm 12 W/m2
08:55 11.3 °C 9.9 °C 1013.8 hPa West 14.5 km/h 24.1 km/h 91 % 0 mm 25 W/m2
09:05 11.6 °C 10.3 °C 1013.1 hPa West 17.7 km/h 17.7 km/h 92 % 0 mm 46 W/m2
09:10 11.7 °C 10.4 °C 1013.1 hPa West 17.7 km/h 25.7 km/h 92 % 0 mm 47 W/m2
09:15 11.8 °C 10.6 °C 1013.1 hPa WNW 19.3 km/h 48.3 km/h 92 % 0 mm 58 W/m2
09:20 11.9 °C 10.7 °C 1013.1 hPa NW 24.1 km/h 24.1 km/h 92 % 0 mm 63 W/m2
09:25 12.1 °C 10.8 °C 1013.1 hPa WNW 29 km/h 29 km/h 92 % 0 mm 65 W/m2
09:35 12.1 °C 10.8 °C 1012.8 hPa NW 24.1 km/h 35.4 km/h 92 % 0 mm 84 W/m2
09:40 12.2 °C 10.9 °C 1012.4 hPa West 25.7 km/h 33.8 km/h 92 % 0 mm 88 W/m2
09:45 12.3 °C 11.1 °C 1012.4 hPa NW 27.4 km/h 33.8 km/h 92 % 0 mm 98 W/m2
09:55 12.7 °C 11.2 °C 1012.1 hPa WNW 29 km/h 37 km/h 91 % 0 mm 137 W/m2
10:00 12.9 °C 11.3 °C 1012.1 hPa WNW 32.2 km/h 45.1 km/h 90 % 0 mm 144 W/m2
10:05 13.2 °C 11.4 °C 1012.1 hPa West 35.4 km/h 45.1 km/h 89 % 0 mm 158 W/m2
10:10 13.4 °C 11.3 °C 1012.1 hPa WNW 37 km/h 48.3 km/h 87 % 0 mm 171 W/m2
10:15 13.6 °C 11.3 °C 1012.1 hPa WSW 38.6 km/h 49.9 km/h 86 % 0 mm 148 W/m2
10:20 13.7 °C 11.2 °C 1012.1 hPa WNW 38.6 km/h 38.6 km/h 85 % 0 mm 137 W/m2
10:25 13.7 °C 11.2 °C 1012.1 hPa WNW 35.4 km/h 41.8 km/h 85 % 0 mm 114 W/m2
10:30 13.7 °C 11.2 °C 1012.4 hPa West 33.8 km/h 33.8 km/h 85 % 0 mm 100 W/m2
10:40 13.9 °C 11.2 °C 1012.1 hPa West 37 km/h 40.2 km/h 84 % 0 mm 100 W/m2
10:45 14 °C 11.3 °C 1012.4 hPa West 38.6 km/h 46.7 km/h 84 % 0 mm 98 W/m2
10:50 14.1 °C 11.4 °C 1012.1 hPa NW 40.2 km/h 45.1 km/h 84 % 0 mm 105 W/m2
10:55 14.1 °C 11.6 °C 1012.1 hPa WNW 40.2 km/h 45.1 km/h 85 % 0 mm 116 W/m2
11:00 14.1 °C 11.6 °C 1012.1 hPa West 35.4 km/h 38.6 km/h 85 % 0 mm 105 W/m2
11:05 14.1 °C 11.4 °C 1012.1 hPa WNW 35.4 km/h 45.1 km/h 84 % 0 mm 88 W/m2
11:15 14.1 °C 11.3 °C 1012.1 hPa West 41.8 km/h 41.8 km/h 83 % 0 mm 76 W/m2
11:20 14.1 °C 11.3 °C 1012.1 hPa WNW 40.2 km/h 49.9 km/h 83 % 0 mm 67 W/m2
11:25 14.1 °C 11.3 °C 1012.4 hPa WNW 40.2 km/h 49.9 km/h 83 % 0 mm 70 W/m2
11:30 14.1 °C 11.3 °C 1012.8 hPa West 38.6 km/h 53.1 km/h 83 % 0 mm 83 W/m2
11:35 14.1 °C 11.1 °C 1012.8 hPa WNW 38.6 km/h 53.1 km/h 82 % 0 mm 93 W/m2
11:40 14.1 °C 11.1 °C 1012.8 hPa WNW 40.2 km/h 40.2 km/h 82 % 0 mm 104 W/m2
11:50 14.2 °C 11.3 °C 1013.1 hPa West 38.6 km/h 38.6 km/h 83 % 0 mm 146 W/m2
11:55 14.1 °C 11.3 °C 1013.4 hPa West 37 km/h 45.1 km/h 83 % 0 mm 176 W/m2
12:05 14.1 °C 11.4 °C 1013.8 hPa WNW 29 km/h 33.8 km/h 84 % 0 mm 186 W/m2
12:10 14.1 °C 11.6 °C 1013.8 hPa West 30.6 km/h 30.6 km/h 85 % 0 mm 171 W/m2
12:15 14 °C 11.5 °C 1013.8 hPa West 30.6 km/h 35.4 km/h 85 % 0 mm 156 W/m2
12:20 14 °C 11.5 °C 1013.8 hPa WNW 29 km/h 33.8 km/h 85 % 0 mm 111 W/m2
12:25 13.9 °C 11.4 °C 1013.8 hPa West 27.4 km/h 33.8 km/h 85 % 0 mm 130 W/m2
12:30 13.8 °C 11.5 °C 1013.8 hPa West 27.4 km/h 27.4 km/h 86 % 0 mm 104 W/m2
12:35 13.6 °C 11.5 °C 1013.8 hPa West 24.1 km/h 27.4 km/h 87 % 0 mm 86 W/m2
12:40 13.5 °C 11.4 °C 1013.8 hPa West 20.9 km/h 20.9 km/h 87 % 0 mm 139 W/m2
12:45 13.4 °C 11.5 °C 1013.8 hPa NW 20.9 km/h 20.9 km/h 88 % 0 mm 148 W/m2
12:55 13.4 °C 11.3 °C 1013.8 hPa WNW 19.3 km/h 20.9 km/h 87 % 0 mm 100 W/m2
13:05 13.3 °C 11.2 °C 1013.8 hPa West 19.3 km/h 24.1 km/h 87 % 0 mm 69 W/m2
13:10 13.2 °C 11.3 °C 1013.8 hPa West 20.9 km/h 29 km/h 88 % 0 mm 60 W/m2
13:15 13.1 °C 11.2 °C 1013.8 hPa WNW 19.3 km/h 29 km/h 88 % 0 mm 51 W/m2
13:20 13 °C 11.1 °C 1013.4 hPa WNW 19.3 km/h 24.1 km/h 88 % 0 mm 51 W/m2
13:30 13 °C 11.1 °C 1013.4 hPa WSW 22.5 km/h 22.5 km/h 88 % 0 mm 58 W/m2
13:35 12.9 °C 11 °C 1013.4 hPa WSW 20.9 km/h 22.5 km/h 88 % 0 mm 62 W/m2
13:45 12.9 °C 11 °C 1013.4 hPa WSW 22.5 km/h 24.1 km/h 88 % 0 mm 111 W/m2
13:50 13 °C 11.1 °C 1013.4 hPa WNW 20.9 km/h 20.9 km/h 88 % 0 mm 105 W/m2
13:55 13.1 °C 11.1 °C 1013.4 hPa West 16.1 km/h 20.9 km/h 88 % 0 mm 90 W/m2
14:00 13 °C 11.1 °C 1013.4 hPa WSW 17.7 km/h 20.9 km/h 88 % 0 mm 91 W/m2
14:10 12.9 °C 10.9 °C 1013.4 hPa West 24.1 km/h 29 km/h 88 % 0 mm 114 W/m2
14:15 12.8 °C 10.9 °C 1013.4 hPa WSW 24.1 km/h 29 km/h 88 % 0 mm 144 W/m2
14:20 12.9 °C 11.1 °C 1013.4 hPa WNW 24.1 km/h 24.1 km/h 89 % 0 mm 190 W/m2
14:25 12.9 °C 11.1 °C 1013.4 hPa West 22.5 km/h 24.1 km/h 89 % 0 mm 209 W/m2
14:30 12.9 °C 11.3 °C 1013.4 hPa West 20.9 km/h 20.9 km/h 90 % 0 mm 221 W/m2
14:35 13.1 °C 11.4 °C 1013.4 hPa West 16.1 km/h 20.9 km/h 90 % 0 mm 264 W/m2
14:40 13.3 °C 11.5 °C 1013.4 hPa WSW 12.9 km/h 22.5 km/h 89 % 0 mm 148 W/m2
14:45 13.3 °C 11.2 °C 1013.4 hPa West 14.5 km/h 22.5 km/h 87 % 0 mm 93 W/m2
14:55 13.2 °C 10.9 °C 1013.4 hPa WNW 16.1 km/h 17.7 km/h 86 % 0 mm 178 W/m2
15:00 13.3 °C 11.1 °C 1013.4 hPa West 19.3 km/h 19.3 km/h 86 % 0 mm 216 W/m2
15:05 13.4 °C 10.9 °C 1013.4 hPa West 22.5 km/h 30.6 km/h 85 % 0 mm 218 W/m2
15:10 13.5 °C 11 °C 1013.4 hPa WNW 24.1 km/h 24.1 km/h 85 % 0 mm 302 W/m2
15:15 13.6 °C 11.1 °C 1013.4 hPa West 20.9 km/h 24.1 km/h 85 % 0 mm 223 W/m2
15:20 13.5 °C 10.8 °C 1013.4 hPa West 19.3 km/h 19.3 km/h 84 % 0 mm 91 W/m2
15:25 13.4 °C 10.7 °C 1013.4 hPa West 19.3 km/h 19.3 km/h 84 % 0 mm 88 W/m2
15:30 13.3 °C 10.6 °C 1013.4 hPa NW 19.3 km/h 19.3 km/h 84 % 0 mm 62 W/m2
15:35 13.1 °C 10.7 °C 1013.4 hPa WNW 22.5 km/h 24.1 km/h 85 % 0 mm 62 W/m2
15:45 12.8 °C 10.5 °C 1013.4 hPa West 24.1 km/h 25.7 km/h 86 % 0 mm 58 W/m2
15:50 12.7 °C 10.6 °C 1013.4 hPa West 24.1 km/h 24.1 km/h 87 % 0 mm 81 W/m2
16:00 12.6 °C 10.4 °C 1013.1 hPa West 20.9 km/h 20.9 km/h 87 % 0 mm 62 W/m2
16:05 12.6 °C 10.4 °C 1013.4 hPa West 20.9 km/h 20.9 km/h 87 % 0 mm 53 W/m2
16:10 12.6 °C 10.5 °C 1013.4 hPa West 19.3 km/h 19.3 km/h 87 % 0 mm 44 W/m2
16:15 12.6 °C 10.3 °C 1013.4 hPa WNW 17.7 km/h 19.3 km/h 86 % 0 mm 28 W/m2
16:25 12.5 °C 10.2 °C 1013.8 hPa WNW 20.9 km/h 24.1 km/h 86 % 0 mm 19 W/m2
16:30 12.4 °C 10.3 °C 1013.8 hPa WNW 19.3 km/h 29 km/h 87 % 0 mm 23 W/m2
16:35 12.3 °C 10.5 °C 1013.8 hPa West 19.3 km/h 29 km/h 89 % 0 mm 26 W/m2
16:40 12.1 °C 10.3 °C 1013.8 hPa West 17.7 km/h 19.3 km/h 89 % 0 mm 26 W/m2
16:45 11.9 °C 10.3 °C 1013.4 hPa West 17.7 km/h 19.3 km/h 90 % 0 mm 30 W/m2
16:55 11.8 °C 10.1 °C 1013.8 hPa WNW 19.3 km/h 20.9 km/h 89 % 0 mm 26 W/m2
17:00 11.8 °C 10.1 °C 1013.8 hPa WNW 17.7 km/h 19.3 km/h 89 % 0 mm 18 W/m2
17:05 11.8 °C 10 °C 1013.8 hPa WNW 17.7 km/h 20.9 km/h 89 % 0 mm 12 W/m2
17:10 11.7 °C 10.1 °C 1014.1 hPa WNW 17.7 km/h 17.7 km/h 90 % 0 mm 7 W/m2
17:15 11.7 °C 10.1 °C 1014.1 hPa WNW 19.3 km/h 19.3 km/h 90 % 0 mm 5 W/m2
17:25 11.5 °C 9.9 °C 1014.1 hPa West 17.7 km/h 19.3 km/h 90 % 0 mm 0 W/m2
17:30 11.4 °C 9.9 °C 1014.1 hPa West 17.7 km/h 33.8 km/h 90 % 0 mm 0 W/m2
17:35 11.4 °C 9.8 °C 1014.1 hPa West 17.7 km/h 33.8 km/h 90 % 0 mm 0 W/m2
17:40 11.4 °C 9.8 °C 1014.1 hPa NW 16.1 km/h 16.1 km/h 90 % 0 mm 0 W/m2
17:45 11.3 °C 9.8 °C 1014.1 hPa NW 14.5 km/h 17.7 km/h 90 % 0 mm 0 W/m2
17:50 11.3 °C 9.8 °C 1014.4 hPa WNW 16.1 km/h 20.9 km/h 90 % 0 mm 0 W/m2
17:55 11.3 °C 9.7 °C 1014.4 hPa WNW 14.5 km/h 20.9 km/h 90 % 0 mm 0 W/m2
18:00 11.3 °C 9.7 °C 1014.1 hPa WNW 12.9 km/h 17.7 km/h 90 % 0 mm 0 W/m2
18:05 11.2 °C 9.5 °C 1014.4 hPa WNW 12.9 km/h 17.7 km/h 89 % 0 mm 0 W/m2
18:15 11.1 °C 9.4 °C 1014.8 hPa West 9.7 km/h 17.7 km/h 89 % 0 mm 0 W/m2
18:20 11.1 °C 9.4 °C 1014.8 hPa NW 8 km/h 17.7 km/h 89 % 0 mm 0 W/m2
18:25 11.1 °C 9.3 °C 1014.8 hPa WNW 8 km/h 17.7 km/h 89 % 0 mm 0 W/m2
18:30 11 °C 9.3 °C 1014.8 hPa WNW 9.7 km/h 17.7 km/h 89 % 0 mm 0 W/m2
18:40 10.9 °C 9.2 °C 1014.8 hPa West 11.3 km/h 11.3 km/h 89 % 0 mm 0 W/m2
18:45 10.8 °C 9.1 °C 1014.8 hPa WNW 9.7 km/h 17.7 km/h 89 % 0 mm 0 W/m2
18:50 10.7 °C 8.8 °C 1014.8 hPa WNW 11.3 km/h 11.3 km/h 88 % 0 mm 0 W/m2
19:00 10.6 °C 8.7 °C 1014.8 hPa West 12.9 km/h 12.9 km/h 88 % 0 mm 0 W/m2
19:05 10.6 °C 8.7 °C 1014.8 hPa NW 12.9 km/h 17.7 km/h 88 % 0 mm 0 W/m2
19:10 10.5 °C 8.4 °C 1014.8 hPa WNW 12.9 km/h 12.9 km/h 87 % 0 mm 0 W/m2
19:15 10.4 °C 8.4 °C 1014.4 hPa WNW 12.9 km/h 16.1 km/h 87 % 0 mm 0 W/m2
19:20 10.3 °C 8.3 °C 1014.8 hPa WNW 11.3 km/h 17.7 km/h 87 % 0 mm 0 W/m2
19:25 10.3 °C 8.2 °C 1014.8 hPa WNW 9.7 km/h 17.7 km/h 87 % 0 mm 0 W/m2
19:30 10.2 °C 8.2 °C 1014.8 hPa West 9.7 km/h 9.7 km/h 87 % 0 mm 0 W/m2
19:40 10.2 °C 8.1 °C 1014.8 hPa WNW 11.3 km/h 17.7 km/h 87 % 0 mm 0 W/m2
19:50 10.1 °C 8.1 °C 1014.8 hPa West 11.3 km/h 17.7 km/h 87 % 0 mm 0 W/m2
19:55 10.1 °C 7.8 °C 1014.8 hPa WNW 11.3 km/h 17.7 km/h 86 % 0 mm 0 W/m2
20:00 10 °C 7.8 °C 1014.8 hPa WNW 11.3 km/h 11.3 km/h 86 % 0 mm 0 W/m2
20:05 10 °C 7.9 °C 1015.1 hPa WNW 11.3 km/h 17.7 km/h 87 % 0 mm 0 W/m2
20:10 10 °C 7.9 °C 1015.1 hPa West 12.9 km/h 17.7 km/h 87 % 0 mm 0 W/m2
20:15 9.9 °C 7.9 °C 1014.8 hPa WNW 12.9 km/h 17.7 km/h 87 % 0 mm 0 W/m2
20:20 9.9 °C 7.9 °C 1014.8 hPa West 9.7 km/h 9.7 km/h 87 % 0 mm 0 W/m2
20:25 9.9 °C 7.8 °C 1015.1 hPa NW 8 km/h 19.3 km/h 87 % 0 mm 0 W/m2
20:35 9.9 °C 7.8 °C 1015.1 hPa West 12.9 km/h 17.7 km/h 87 % 0 mm 0 W/m2
20:40 9.9 °C 7.8 °C 1015.1 hPa WNW 12.9 km/h 17.7 km/h 87 % 0 mm 0 W/m2
20:45 9.9 °C 7.8 °C 1014.8 hPa West 12.9 km/h 17.7 km/h 87 % 0 mm 0 W/m2
20:55 9.8 °C 7.8 °C 1014.8 hPa West 14.5 km/h 16.1 km/h 87 % 0 mm 0 W/m2
21:00 9.8 °C 7.8 °C 1014.4 hPa West 14.5 km/h 17.7 km/h 87 % 0 mm 0 W/m2
21:05 9.8 °C 7.9 °C 1014.8 hPa West 14.5 km/h 17.7 km/h 88 % 0 mm 0 W/m2
21:10 9.8 °C 7.9 °C 1014.4 hPa West 16.1 km/h 16.1 km/h 88 % 0 mm 0 W/m2
21:20 9.7 °C 7.8 °C 1014.8 hPa WNW 11.3 km/h 17.7 km/h 88 % 0 mm 0 W/m2
21:25 9.7 °C 7.8 °C 1014.4 hPa WNW 12.9 km/h 17.7 km/h 88 % 0 mm 0 W/m2
21:30 9.7 °C 7.8 °C 1014.8 hPa WNW 12.9 km/h 12.9 km/h 88 % 0 mm 0 W/m2
21:35 9.6 °C 7.7 °C 1014.8 hPa WSW 12.9 km/h 16.1 km/h 88 % 0 mm 0 W/m2
21:40 9.6 °C 7.7 °C 1014.8 hPa WNW 11.3 km/h 17.7 km/h 88 % 0 mm 0 W/m2
21:45 9.6 °C 7.7 °C 1014.8 hPa WNW 14.5 km/h 17.7 km/h 88 % 0 mm 0 W/m2
21:50 9.6 °C 7.7 °C 1014.8 hPa West 16.1 km/h 17.7 km/h 88 % 0 mm 0 W/m2
22:00 9.6 °C 7.6 °C 1014.8 hPa WNW 16.1 km/h 16.1 km/h 87 % 0 mm 0 W/m2
22:10 9.7 °C 7.6 °C 1014.4 hPa WSW 14.5 km/h 17.7 km/h 87 % 0 mm 0 W/m2
22:15 9.7 °C 7.6 °C 1014.4 hPa West 14.5 km/h 17.7 km/h 87 % 0 mm 0 W/m2
22:20 9.6 °C 7.4 °C 1014.4 hPa WSW 14.5 km/h 24.1 km/h 86 % 0 mm 0 W/m2
22:25 9.6 °C 7.3 °C 1014.8 hPa West 16.1 km/h 24.1 km/h 86 % 0 mm 0 W/m2
22:30 9.6 °C 7.3 °C 1014.8 hPa West 19.3 km/h 19.3 km/h 86 % 0 mm 0 W/m2
22:35 9.6 °C 7.3 °C 1014.4 hPa West 16.1 km/h 19.3 km/h 86 % 0 mm 0 W/m2
22:40 9.6 °C 7.3 °C 1014.4 hPa WSW 14.5 km/h 14.5 km/h 86 % 0 mm 0 W/m2
22:50 9.6 °C 7.5 °C 1014.4 hPa WNW 12.9 km/h 17.7 km/h 87 % 0 mm 0 W/m2
22:55 9.5 °C 7.4 °C 1014.8 hPa WSW 14.5 km/h 19.3 km/h 87 % 0 mm 0 W/m2
23:00 9.6 °C 7.3 °C 1014.8 hPa West 16.1 km/h 16.1 km/h 86 % 0 mm 0 W/m2
23:05 9.6 °C 7.2 °C 1014.8 hPa West 16.1 km/h 17.7 km/h 85 % 0 mm 0 W/m2
23:10 9.5 °C 7.1 °C 1014.8 hPa West 16.1 km/h 20.9 km/h 85 % 0 mm 0 W/m2
23:15 9.4 °C 7 °C 1014.4 hPa West 17.7 km/h 20.9 km/h 85 % 0 mm 0 W/m2
23:20 9.3 °C 6.9 °C 1014.4 hPa West 16.1 km/h 16.1 km/h 85 % 0 mm 0 W/m2
23:25 9.3 °C 6.9 °C 1014.4 hPa West 12.9 km/h 17.7 km/h 85 % 0 mm 0 W/m2
23:35 9.1 °C 6.7 °C 1014.8 hPa West 14.5 km/h 17.7 km/h 85 % 0 mm 0 W/m2
23:40 9 °C 6.6 °C 1014.8 hPa West 12.9 km/h 12.9 km/h 85 % 0 mm 0 W/m2
23:45 8.9 °C 6.5 °C 1014.8 hPa WNW 12.9 km/h 17.7 km/h 85 % 0 mm 0 W/m2
23:50 8.8 °C 6.4 °C 1014.8 hPa West 12.9 km/h 12.9 km/h 85 % 0 mm 0 W/m2
23:55 8.7 °C 6.3 °C 1014.8 hPa WSW 12.9 km/h 16.1 km/h 85 % 0 mm 0 W/m2
Delerius-Weather
Compliments of Weather Underground - 2 mb

Data updates at regular intervals.